Location: Banska Bystrica
(0.0000°N, 19.1500°E)
Time: 19:33:11
(UTC+01:00)

Cosmos 1602 - Pass Details

Date: 19 February 2019
Orbit: 516 x 535 km, 82.5° (Epoch: 22 March)

Event Time Altitude Azimuth Distance (km) Brightness Sun altitude
Rises 18:53:37 0° 172° (S) 2,631 7.3 -13.8°
Reaches altitude 10° 18:55:50 10° 165° (SSE) 1,742 6.3 -14.4°
Maximum altitude 18:59:27 41° 94° (E) 754 4.0 -15.3°
Enters shadow 19:01:40 20° 33° (NNE) 1,225 5.2 -15.8°
